{"data":{"norad_id":67622,"epoch":"2026-05-25T04:45:22.809024Z","epoch_age_seconds":68186,"freshness":"FRESH","line1":"1 67622U 26020F   26145.19818066  .00045623  00000+0  16564-2 0  9993","line2":"2 67622  42.9997  67.7855 0001155 269.2443  90.8276 15.27596757 17818","mean_motion":15.27596757,"eccentricity":0.0001155,"inclination_deg":42.9997,"raan_deg":67.7855,"arg_perigee_deg":269.2443,"mean_anomaly_deg":90.8276,"bstar":0.0016564,"rev_number":1781,"period_min":94.265714652862,"perigee_km":482.20645881327,"apogee_km":483.79138121079,"semimajor_km":6861.135920012,"source":"CELESTRAK","updated_at":"2026-05-25T13:38:21.650055Z"}}